ACA8114 CYZF-CYEG

Flight info

Callsign ACA8114
Flight time 1h 24m
Altitude 35000
Route YZF DCT TETAG TETAG2
Aircraft A321/M-SDE3FGHIRWY/LB1

Departure

Time 2026-05-07 23:55
Airport Yellowknife International Airport (CYZF)

Arrival

Time 2026-05-08 01:19
Airport Edmonton International Airport (CYEG)
Time Latitude Longitude Altitude Speed Heading
2026-05-07 22:54 62.47116 -114.43893 672 ft 0 kts 88°
2026-05-07 23:44 62.47116 -114.43906 672 ft 2 kts 88°
2026-05-07 23:45 62.47115 -114.43938 673 ft 2 kts 88°
2026-05-07 23:45 62.47115 -114.43958 674 ft 2 kts 88°
2026-05-07 23:45 62.47110 -114.43989 674 ft 2 kts 51°
2026-05-07 23:45 62.47098 -114.44009 675 ft 2 kts 22°
2026-05-07 23:46 62.47087 -114.44016 675 ft 0 kts 360°
2026-05-07 23:46 62.47080 -114.44014 675 ft 0 kts 356°
2026-05-07 23:48 62.47082 -114.44015 675 ft 1 kts 356°
2026-05-07 23:48 62.47100 -114.44017 675 ft 3 kts 356°
2026-05-07 23:48 62.47134 -114.44022 675 ft 6 kts 357°
2026-05-07 23:48 62.47184 -114.44028 674 ft 8 kts 357°
2026-05-07 23:49 62.47247 -114.44037 673 ft 9 kts 356°
2026-05-07 23:49 62.47298 -114.44063 673 ft 7 kts 330°
2026-05-07 23:49 62.47304 -114.44073 673 ft 0 kts 323°
2026-05-07 23:51 62.47304 -114.44074 673 ft 0 kts 323°
2026-05-07 23:52 62.47308 -114.44080 673 ft 1 kts 319°
2026-05-07 23:52 62.47316 -114.44098 673 ft 2 kts 305°
2026-05-07 23:52 62.47322 -114.44133 673 ft 3 kts 285°
2026-05-07 23:52 62.47324 -114.44182 674 ft 3 kts 268°
2026-05-07 23:53 62.47323 -114.44241 674 ft 4 kts 268°
2026-05-07 23:53 62.47322 -114.44312 673 ft 4 kts 268°
2026-05-07 23:53 62.47317 -114.44370 674 ft 3 kts 236°
2026-05-07 23:53 62.47292 -114.44391 674 ft 3 kts 182°
2026-05-07 23:54 62.47226 -114.44383 675 ft 32 kts 176°
2026-05-07 23:54 62.46753 -114.44312 683 ft 101 kts 176°
2026-05-07 23:54 62.45834 -114.44169 675 ft 159 kts 174°
2026-05-07 23:54 62.44662 -114.43879 994 ft 178 kts 174°
2026-05-07 23:55 62.43424 -114.43626 1695 ft 179 kts 176°
2026-05-07 23:55 62.42192 -114.43481 2433 ft 177 kts 177°
2026-05-07 23:55 62.40919 -114.43330 2806 ft 186 kts 176°
2026-05-07 23:55 62.39577 -114.43212 3088 ft 200 kts 177°
2026-05-07 23:56 62.38137 -114.43160 3387 ft 214 kts 178°
2026-05-07 23:56 62.36604 -114.43108 3670 ft 229 kts 178°
2026-05-07 23:56 62.34904 -114.43047 3927 ft 249 kts 178°
2026-05-07 23:56 62.33122 -114.42973 4283 ft 265 kts 178°
2026-05-07 23:57 62.31251 -114.42889 4871 ft 272 kts 178°
2026-05-07 23:57 62.29365 -114.42802 5606 ft 274 kts 178°
2026-05-07 23:57 62.27473 -114.42719 6313 ft 278 kts 178°
2026-05-07 23:57 62.25529 -114.42632 6969 ft 282 kts 179°
2026-05-07 23:58 62.23581 -114.42545 7651 ft 286 kts 179°
2026-05-07 23:58 62.21571 -114.42457 8362 ft 290 kts 179°
2026-05-07 23:58 62.19529 -114.42367 9079 ft 293 kts 179°
2026-05-07 23:58 62.17451 -114.42275 9779 ft 296 kts 179°
2026-05-07 23:59 62.15343 -114.42181 10391 ft 302 kts 179°
2026-05-07 23:59 62.13175 -114.42085 10740 ft 318 kts 179°
2026-05-07 23:59 62.10941 -114.41983 11101 ft 331 kts 179°
2026-05-07 23:59 62.08569 -114.41875 11718 ft 335 kts 179°
2026-05-08 00:00 62.06269 -114.41770 12360 ft 338 kts 180°
2026-05-08 00:00 62.03920 -114.41663 12992 ft 340 kts 180°
2026-05-08 00:00 62.01544 -114.41557 13607 ft 342 kts 180°
2026-05-08 00:00 61.99172 -114.41452 14201 ft 345 kts 180°
2026-05-08 00:01 61.96728 -114.41344 14807 ft 347 kts 180°
2026-05-08 00:01 61.94345 -114.41241 15395 ft 349 kts 180°
2026-05-08 00:01 61.91927 -114.41136 15984 ft 350 kts 180°
2026-05-08 00:01 61.89457 -114.41027 16552 ft 353 kts 180°
2026-05-08 00:02 61.86989 -114.40918 17100 ft 355 kts 180°
2026-05-08 00:02 61.84521 -114.40809 17629 ft 357 kts 180°
2026-05-08 00:02 61.82009 -114.40698 18172 ft 358 kts 180°
2026-05-08 00:02 61.79549 -114.40587 18706 ft 359 kts 180°
2026-05-08 00:03 61.77049 -114.40475 19246 ft 360 kts 180°
2026-05-08 00:03 61.74551 -114.40363 19767 ft 361 kts 180°
2026-05-08 00:03 61.71973 -114.40250 20275 ft 363 kts 180°
2026-05-08 00:03 61.69395 -114.40136 20762 ft 365 kts 180°
2026-05-08 00:04 61.66853 -114.40025 21235 ft 367 kts 180°
2026-05-08 00:04 61.64240 -114.39909 21714 ft 369 kts 180°
2026-05-08 00:04 61.61673 -114.39796 22175 ft 370 kts 180°
2026-05-08 00:04 61.59107 -114.39684 22618 ft 372 kts 180°
2026-05-08 00:05 61.56527 -114.39572 23052 ft 374 kts 180°
2026-05-08 00:05 61.53930 -114.39459 23471 ft 376 kts 180°
2026-05-08 00:05 61.51311 -114.39345 23888 ft 378 kts 180°
2026-05-08 00:05 61.48682 -114.39231 24303 ft 380 kts 180°
2026-05-08 00:06 61.46071 -114.39119 24693 ft 382 kts 180°
2026-05-08 00:06 61.43418 -114.39005 25058 ft 384 kts 181°
2026-05-08 00:06 61.40739 -114.38890 25417 ft 386 kts 181°
2026-05-08 00:06 61.38076 -114.38775 25765 ft 389 kts 181°
2026-05-08 00:07 61.35345 -114.38657 26116 ft 391 kts 181°
2026-05-08 00:07 61.32654 -114.38539 26456 ft 394 kts 181°
2026-05-08 00:07 61.29909 -114.38423 26784 ft 396 kts 181°
2026-05-08 00:07 61.27147 -114.38309 27106 ft 399 kts 181°
2026-05-08 00:08 61.24396 -114.38192 27408 ft 401 kts 181°
2026-05-08 00:08 61.21596 -114.38070 27710 ft 404 kts 181°
2026-05-08 00:08 61.18788 -114.37951 28031 ft 406 kts 181°
2026-05-08 00:08 61.15980 -114.37829 28346 ft 407 kts 181°
2026-05-08 00:09 61.13071 -114.37704 28660 ft 409 kts 181°
2026-05-08 00:09 61.10160 -114.37581 28960 ft 411 kts 181°
2026-05-08 00:09 61.07294 -114.37460 29238 ft 413 kts 181°
2026-05-08 00:09 61.04359 -114.37341 29507 ft 415 kts 181°
2026-05-08 00:10 61.01449 -114.37219 29773 ft 417 kts 181°
2026-05-08 00:10 60.98549 -114.37099 30033 ft 419 kts 181°
2026-05-08 00:10 60.95679 -114.36981 30273 ft 421 kts 181°
2026-05-08 00:10 60.92755 -114.36861 30509 ft 423 kts 181°
2026-05-08 00:11 60.89782 -114.36739 30753 ft 425 kts 181°
2026-05-08 00:11 60.86846 -114.36618 30971 ft 427 kts 181°
2026-05-08 00:11 60.83903 -114.36494 31167 ft 429 kts 181°
2026-05-08 00:11 60.80911 -114.36369 31366 ft 431 kts 181°
2026-05-08 00:12 60.77905 -114.36245 31603 ft 432 kts 182°
2026-05-08 00:12 60.74931 -114.36121 31875 ft 432 kts 182°
2026-05-08 00:12 60.71943 -114.35995 32136 ft 432 kts 182°
2026-05-08 00:12 60.68968 -114.35873 32364 ft 432 kts 182°
2026-05-08 00:13 60.65966 -114.35750 32555 ft 433 kts 182°
2026-05-08 00:13 60.62901 -114.35624 32737 ft 433 kts 182°
2026-05-08 00:13 60.59876 -114.35502 32906 ft 434 kts 182°
2026-05-08 00:13 60.56898 -114.35381 33077 ft 435 kts 182°
2026-05-08 00:14 60.53856 -114.35258 33223 ft 437 kts 182°
2026-05-08 00:14 60.50817 -114.35136 33365 ft 439 kts 182°
2026-05-08 00:14 60.47810 -114.35015 33520 ft 440 kts 182°
2026-05-08 00:14 60.44758 -114.34888 33674 ft 441 kts 182°
2026-05-08 00:15 60.41682 -114.34763 33821 ft 442 kts 182°
2026-05-08 00:15 60.38633 -114.34640 33941 ft 443 kts 182°
2026-05-08 00:15 60.35574 -114.34517 34082 ft 444 kts 182°
2026-05-08 00:15 60.32493 -114.34392 34210 ft 446 kts 182°
2026-05-08 00:16 60.29409 -114.34269 34327 ft 447 kts 182°
2026-05-08 00:16 60.26262 -114.34143 34455 ft 449 kts 182°
2026-05-08 00:16 60.23067 -114.34016 34587 ft 450 kts 182°
2026-05-08 00:16 60.19772 -114.33885 34738 ft 451 kts 182°
2026-05-08 00:17 60.16610 -114.33759 34860 ft 452 kts 182°
2026-05-08 00:17 60.13490 -114.33635 34869 ft 453 kts 182°
2026-05-08 00:17 60.07219 -114.33387 34873 ft 453 kts 182°
2026-05-08 00:18 60.00957 -114.33138 34870 ft 454 kts 182°
2026-05-08 00:18 59.94649 -114.32891 34873 ft 454 kts 182°
2026-05-08 00:19 59.88350 -114.32643 34876 ft 454 kts 182°
2026-05-08 00:19 59.82074 -114.32394 34875 ft 455 kts 182°
2026-05-08 00:20 59.75672 -114.32145 34874 ft 455 kts 182°
2026-05-08 00:20 59.69326 -114.31901 34874 ft 455 kts 182°
2026-05-08 00:21 59.63032 -114.31658 34870 ft 456 kts 182°
2026-05-08 00:21 59.56721 -114.31416 34863 ft 456 kts 182°
2026-05-08 00:22 59.50398 -114.31175 34855 ft 457 kts 182°
2026-05-08 00:22 59.44094 -114.30933 34851 ft 457 kts 182°
2026-05-08 00:23 59.37775 -114.30692 34846 ft 457 kts 182°
2026-05-08 00:23 59.31426 -114.30451 34840 ft 457 kts 182°
2026-05-08 00:24 59.25101 -114.30211 34834 ft 458 kts 182°
2026-05-08 00:24 59.18776 -114.29974 34831 ft 459 kts 182°
2026-05-08 00:25 59.12403 -114.29734 34828 ft 459 kts 182°
2026-05-08 00:25 59.06056 -114.29498 34827 ft 459 kts 183°
2026-05-08 00:26 58.99659 -114.29260 34826 ft 460 kts 182°
2026-05-08 00:26 58.93295 -114.29024 34830 ft 460 kts 182°
2026-05-08 00:27 58.86926 -114.28788 34836 ft 461 kts 183°
2026-05-08 00:27 58.80541 -114.28554 34835 ft 461 kts 183°
2026-05-08 00:28 58.74164 -114.28317 34847 ft 462 kts 183°
2026-05-08 00:28 58.67745 -114.28083 34843 ft 462 kts 183°
2026-05-08 00:29 58.61359 -114.27851 34839 ft 463 kts 183°
2026-05-08 00:29 58.54896 -114.27615 34838 ft 462 kts 183°
2026-05-08 00:30 58.48507 -114.27383 34844 ft 463 kts 184°
2026-05-08 00:30 58.42061 -114.27153 34849 ft 463 kts 184°
2026-05-08 00:31 58.35646 -114.26923 34841 ft 463 kts 184°
2026-05-08 00:31 58.29248 -114.26698 34836 ft 464 kts 184°
2026-05-08 00:32 58.22831 -114.26467 34836 ft 464 kts 184°
2026-05-08 00:32 58.16401 -114.26239 34834 ft 465 kts 184°
2026-05-08 00:33 58.09962 -114.26010 34829 ft 466 kts 184°
2026-05-08 00:33 58.03489 -114.25784 34834 ft 466 kts 184°
2026-05-08 00:34 57.97033 -114.25557 34831 ft 467 kts 184°
2026-05-08 00:34 57.90584 -114.25330 34837 ft 466 kts 184°
2026-05-08 00:35 57.84103 -114.25103 34841 ft 467 kts 185°
2026-05-08 00:35 57.77545 -114.24880 34835 ft 468 kts 185°
2026-05-08 00:36 57.70842 -114.24648 34837 ft 468 kts 184°
2026-05-08 00:36 57.64363 -114.24426 34829 ft 470 kts 185°
2026-05-08 00:37 57.57849 -114.24202 34831 ft 471 kts 185°
2026-05-08 00:38 57.48061 -114.23865 34832 ft 470 kts 185°
2026-05-08 00:38 57.41569 -114.23643 34842 ft 471 kts 185°
2026-05-08 00:39 57.35061 -114.23422 34844 ft 472 kts 185°
2026-05-08 00:39 57.28528 -114.23203 34855 ft 471 kts 185°
2026-05-08 00:40 57.21968 -114.22980 34856 ft 473 kts 185°
2026-05-08 00:40 57.15416 -114.22762 34853 ft 472 kts 185°
2026-05-08 00:41 57.08888 -114.22544 34853 ft 472 kts 185°
2026-05-08 00:41 57.02288 -114.22322 34862 ft 472 kts 185°
2026-05-08 00:42 56.95754 -114.22106 34851 ft 474 kts 185°
2026-05-08 00:42 56.89166 -114.21892 34850 ft 475 kts 185°
2026-05-08 00:43 56.82587 -114.21674 34851 ft 475 kts 185°
2026-05-08 00:43 56.76002 -114.21456 34854 ft 475 kts 185°
2026-05-08 00:44 56.69406 -114.21239 34856 ft 476 kts 185°
2026-05-08 00:44 56.62687 -114.21018 34859 ft 476 kts 186°
2026-05-08 00:45 56.56105 -114.20805 34856 ft 476 kts 186°
2026-05-08 00:45 56.49480 -114.20592 34858 ft 477 kts 186°
2026-05-08 00:46 56.42881 -114.20380 34854 ft 478 kts 186°
2026-05-08 00:46 56.36267 -114.20164 34856 ft 477 kts 186°
2026-05-08 00:47 56.29651 -114.19955 34854 ft 478 kts 186°
2026-05-08 00:47 56.23045 -114.19744 34852 ft 479 kts 186°
2026-05-08 00:48 56.16410 -114.19532 34854 ft 479 kts 186°
2026-05-08 00:48 56.09703 -114.19321 34857 ft 480 kts 186°
2026-05-08 00:49 56.03089 -114.19112 34858 ft 480 kts 186°
2026-05-08 00:49 55.96430 -114.18903 34863 ft 480 kts 186°
2026-05-08 00:50 55.89755 -114.18691 34861 ft 481 kts 186°
2026-05-08 00:50 55.83110 -114.18484 34859 ft 481 kts 186°
2026-05-08 00:51 55.76449 -114.18275 34855 ft 481 kts 186°
2026-05-08 00:51 55.69697 -114.18069 34863 ft 482 kts 186°
2026-05-08 00:52 55.62964 -114.17857 34864 ft 481 kts 186°
2026-05-08 00:52 55.56321 -114.17654 34864 ft 482 kts 186°
2026-05-08 00:53 55.49661 -114.17451 34868 ft 482 kts 186°
2026-05-08 00:53 55.42964 -114.17242 34865 ft 483 kts 186°
2026-05-08 00:54 55.36259 -114.17037 34867 ft 483 kts 186°
2026-05-08 00:54 55.29594 -114.16836 34867 ft 484 kts 186°
2026-05-08 00:55 55.22890 -114.16631 34864 ft 483 kts 186°
2026-05-08 00:55 55.16161 -114.16428 34859 ft 484 kts 186°
2026-05-08 00:56 55.09381 -114.16225 34862 ft 485 kts 186°
2026-05-08 00:56 55.02642 -114.16023 34866 ft 485 kts 186°
2026-05-08 00:57 54.95847 -114.15820 34864 ft 485 kts 186°
2026-05-08 00:57 54.89059 -114.15620 34542 ft 490 kts 186°
2026-05-08 00:57 54.85654 -114.15523 33694 ft 497 kts 186°
2026-05-08 00:58 54.82184 -114.15429 32918 ft 499 kts 185°
2026-05-08 00:58 54.78678 -114.15324 32256 ft 497 kts 185°
2026-05-08 00:58 54.75271 -114.15220 31608 ft 495 kts 185°
2026-05-08 00:58 54.71809 -114.15115 30934 ft 494 kts 185°
2026-05-08 00:59 54.68330 -114.15011 30200 ft 492 kts 184°
2026-05-08 00:59 54.64944 -114.14911 29520 ft 490 kts 184°
2026-05-08 00:59 54.61560 -114.14805 28949 ft 484 kts 184°
2026-05-08 00:59 54.58217 -114.14700 28443 ft 477 kts 184°
2026-05-08 01:00 54.54954 -114.14604 27951 ft 471 kts 184°
2026-05-08 01:00 54.51709 -114.14510 27470 ft 464 kts 184°
2026-05-08 01:00 54.48509 -114.14415 26993 ft 458 kts 184°
2026-05-08 01:00 54.45363 -114.14323 26520 ft 452 kts 184°
2026-05-08 01:01 54.42258 -114.14233 26061 ft 446 kts 184°
2026-05-08 01:01 54.39194 -114.14144 25589 ft 440 kts 184°
2026-05-08 01:01 54.36189 -114.14056 25133 ft 435 kts 184°
2026-05-08 01:01 54.33197 -114.13971 24663 ft 430 kts 184°
2026-05-08 01:02 54.30218 -114.13887 24202 ft 424 kts 184°
2026-05-08 01:02 54.27307 -114.13804 23757 ft 419 kts 183°
2026-05-08 01:02 54.24398 -114.13719 23309 ft 415 kts 183°
2026-05-08 01:02 54.21537 -114.13637 22857 ft 410 kts 184°
2026-05-08 01:03 54.18707 -114.13557 22408 ft 406 kts 184°
2026-05-08 01:03 54.15921 -114.13479 21960 ft 403 kts 183°
2026-05-08 01:03 54.13125 -114.13399 21514 ft 399 kts 183°
2026-05-08 01:03 54.10366 -114.13319 21069 ft 396 kts 182°
2026-05-08 01:04 54.07604 -114.12843 20613 ft 398 kts 172°
2026-05-08 01:04 54.04962 -114.11549 20171 ft 399 kts 161°
2026-05-08 01:04 54.02450 -114.09635 19744 ft 397 kts 156°
2026-05-08 01:04 53.99983 -114.07582 19311 ft 395 kts 156°
2026-05-08 01:05 53.97545 -114.05553 18884 ft 392 kts 156°
2026-05-08 01:05 53.95114 -114.03566 18719 ft 390 kts 156°
2026-05-08 01:05 53.92653 -114.01582 18528 ft 392 kts 156°
2026-05-08 01:05 53.90212 -113.99628 18073 ft 391 kts 156°
2026-05-08 01:06 53.87720 -113.97640 17592 ft 389 kts 156°
2026-05-08 01:06 53.85259 -113.95676 17123 ft 387 kts 156°
2026-05-08 01:06 53.82864 -113.93761 16674 ft 385 kts 156°
2026-05-08 01:06 53.80452 -113.91824 16228 ft 383 kts 157°
2026-05-08 01:07 53.78050 -113.89896 15813 ft 380 kts 156°
2026-05-08 01:07 53.75679 -113.88002 15364 ft 377 kts 157°
2026-05-08 01:07 53.73357 -113.86145 14964 ft 374 kts 157°
2026-05-08 01:07 53.71007 -113.84273 14557 ft 372 kts 157°
2026-05-08 01:08 53.68581 -113.82343 14120 ft 370 kts 157°
2026-05-08 01:08 53.66269 -113.80502 13691 ft 369 kts 157°
2026-05-08 01:08 53.63954 -113.78664 13263 ft 367 kts 156°
2026-05-08 01:08 53.61619 -113.76814 12829 ft 365 kts 157°
2026-05-08 01:09 53.59369 -113.75026 12419 ft 363 kts 156°
2026-05-08 01:09 53.57107 -113.73096 12028 ft 361 kts 154°
2026-05-08 01:09 53.54882 -113.71165 11602 ft 359 kts 154°
2026-05-08 01:09 53.52681 -113.69250 11175 ft 357 kts 154°
2026-05-08 01:10 53.50465 -113.67330 10774 ft 355 kts 154°
2026-05-08 01:10 53.48230 -113.65397 10376 ft 351 kts 154°
2026-05-08 01:10 53.46103 -113.63568 10204 ft 339 kts 155°
2026-05-08 01:10 53.43910 -113.62476 10014 ft 320 kts 181°
2026-05-08 01:11 53.41856 -113.63148 9814 ft 298 kts 212°
2026-05-08 01:11 53.40158 -113.65102 9462 ft 288 kts 225°
2026-05-08 01:11 53.38618 -113.67260 9093 ft 286 kts 225°
2026-05-08 01:11 53.37077 -113.69330 8759 ft 285 kts 223°
2026-05-08 01:12 53.35500 -113.71320 8429 ft 284 kts 221°
2026-05-08 01:12 53.33901 -113.73263 8082 ft 283 kts 220°
2026-05-08 01:12 53.32305 -113.75162 7747 ft 282 kts 219°
2026-05-08 01:12 53.30696 -113.77058 7428 ft 281 kts 218°
2026-05-08 01:13 53.29098 -113.78915 7094 ft 281 kts 218°
2026-05-08 01:13 53.27466 -113.80799 6756 ft 280 kts 218°
2026-05-08 01:13 53.25854 -113.82659 6468 ft 277 kts 218°
2026-05-08 01:13 53.24317 -113.84428 6430 ft 263 kts 218°
2026-05-08 01:14 53.22803 -113.85986 6345 ft 255 kts 203°
2026-05-08 01:14 53.21088 -113.86204 6220 ft 248 kts 163°
2026-05-08 01:14 53.19658 -113.84700 5928 ft 242 kts 124°
2026-05-08 01:14 53.18761 -113.82333 5659 ft 237 kts 116°
2026-05-08 01:15 53.17913 -113.79974 5370 ft 235 kts 117°
2026-05-08 01:15 53.17405 -113.77469 5062 ft 226 kts 85°
2026-05-08 01:15 53.17823 -113.75002 5037 ft 214 kts 50°
2026-05-08 01:15 53.18875 -113.73343 4991 ft 204 kts 31°
2026-05-08 01:16 53.20070 -113.72095 4778 ft 199 kts 27°
2026-05-08 01:16 53.21240 -113.70868 4573 ft 191 kts 29°
2026-05-08 01:16 53.22309 -113.69659 4326 ft 177 kts 31°
2026-05-08 01:16 53.23315 -113.68482 4081 ft 159 kts 33°
2026-05-08 01:17 53.24183 -113.67459 3843 ft 145 kts 31°
2026-05-08 01:17 53.25010 -113.66494 3650 ft 143 kts 33°
2026-05-08 01:17 53.25832 -113.65530 3466 ft 143 kts 31°
2026-05-08 01:17 53.26641 -113.64581 3288 ft 144 kts 30°
2026-05-08 01:18 53.27470 -113.63616 3143 ft 143 kts 32°
2026-05-08 01:18 53.28282 -113.62663 2972 ft 143 kts 32°
2026-05-08 01:18 53.29091 -113.61699 2773 ft 143 kts 32°
2026-05-08 01:18 53.29906 -113.60749 2591 ft 141 kts 33°
2026-05-08 01:19 53.30703 -113.59836 2399 ft 139 kts 32°
2026-05-08 01:19 53.31488 -113.58944 2317 ft 111 kts 34°
2026-05-08 01:19 53.31873 -113.58477 2320 ft 36 kts 36°
2026-05-08 01:19 53.32074 -113.58244 2323 ft 31 kts 35°
2026-05-08 01:20 53.32193 -113.58093 2323 ft 14 kts 42°
2026-05-08 01:20 53.32232 -113.57952 2324 ft 11 kts 80°
2026-05-08 01:20 53.32245 -113.57825 2325 ft 10 kts 79°
2026-05-08 01:20 53.32254 -113.57735 2326 ft 6 kts 81°
2026-05-08 01:21 53.32250 -113.57679 2327 ft 3 kts 124°
2026-05-08 01:21 53.32226 -113.57663 2328 ft 4 kts 186°
2026-05-08 01:21 53.32185 -113.57698 2328 ft 8 kts 212°